Preview of NWS' New Version of Forecast
This preview is not operational and should not be used for support decisions.

Regional Weather Roundup (RWR)

Issued by National Weather Service (NWS)

                            
000
ASUS44 KMEG 252300
RWRTN 
TENNESSEE HOURLY STATE WEATHER ROUNDUP
NATIONAL WEATHER SERVICE MEMPHIS TN
600 PM CDT SAT MAY 25 2019

TNZ002-004-019-021-049-052-054-088>092-260000-
WEST TENNESSEE
  
CITY           SKY/WX    TMP DP  RH WIND       PRES   REMARKS
MEMPHIS INTL   FAIR      89  64  43 S12       30.06F HX  90           
NWS MEMPHIS      N/A     93 N/A N/A MISG        N/A                   
JACKSON        FAIR      86  66  51 SW6       30.09S                  
DYERSBURG      FAIR      90  65  43 S8        30.07F HX  92           
$$

TNZ008-025-027-028-033-062-065-066-260000-
NORTH MIDDLE TENNESSEE
  
CITY           SKY/WX    TMP DP  RH WIND       PRES   REMARKS
NASHVILLE      PTSUNNY   88  61  40 W10       30.11S                  
CLARKSVILLE    FAIR      86  62  44 SW6       30.09F                  
SMYRNA         FAIR      89  65  44 W8        30.11S HX  91           
CROSSVILLE     FAIR      83  61  47 W10G17    30.19S                  
$$

TNZ061-075-076-078-094-096-097-260000-
SOUTH MIDDLE TENNESSEE
  
CITY           SKY/WX    TMP DP  RH WIND       PRES   REMARKS
$$

TNZ017-018-042-046-047-260000-
NORTHEAST TENNESSEE
  
CITY           SKY/WX    TMP DP  RH WIND       PRES   REMARKS
TRI CITIES     FAIR      86  62  44 W12       30.14S                  
$$

TNZ012-013-036-069-073-074-260000-
CENTRAL EAST TENNESSEE
  
CITY           SKY/WX    TMP DP  RH WIND       PRES   REMARKS
KNOXVILLE      FAIR      87  63  44 SW12      30.11R                  
OAK RIDGE      FAIR      89  66  46 VRB5      30.12S HX  91           
$$

TNZ083-085-099-260000-
SOUTHEAST TENNESSEE
  
CITY           SKY/WX    TMP DP  RH WIND       PRES   REMARKS
CHATTANOOGA    FAIR      91  65  41 SW7       30.11S HX  93           
$$

SKY/WX REPORTED AS FAIR MEANS FEW OR NO CLOUDS BELOW
12 THOUSAND FEET.